This is the latest recevied weather packets stored in our database for station/object W5ITZ. If no packets are shown the sender has not sent any weather packets the latest 10 day(s).
| Time | Temp. | Humidity | Pressure | Rain* | Wind** | Luminosity | Snow |
|---|---|---|---|---|---|---|---|
| 1777595168 | 26.11° C | 76% | 1008 hPa | 0 mm | - | 31 W/m² | - |
| 1777594864 | 26.11° C | 75% | 1008 hPa | 0 mm | - | 29 W/m² | - |
| 1777594560 | 26.67° C | 75% | 1008.1 hPa | 0 mm | - | 34 W/m² | - |
| 1777594256 | 26.67° C | 74% | 1008 hPa | 0 mm | - | 40 W/m² | - |
| 1777593952 | 27.22° C | 73% | 1008.1 hPa | 0 mm | - | 51 W/m² | - |
| 1777593648 | 27.22° C | 73% | 1007.8 hPa | 0 mm | - | 60 W/m² | - |
| 1777593345 | 27.78° C | 72% | 1007.7 hPa | 0 mm | - | 69 W/m² | - |
| 1777593044 | 27.78° C | 72% | 1007.8 hPa | 0 mm | - | 80 W/m² | - |
| 1777592743 | 27.78° C | 71% | 1007.9 hPa | 0 mm | - | 81 W/m² | - |
| 1777592440 | 27.78° C | 71% | 1007.7 hPa | 0 mm | - | 87 W/m² | - |
| 1777592135 | 27.78° C | 71% | 1007.6 hPa | 0 mm | - | 101 W/m² | - |
| 1777591833 | 27.78° C | 71% | 1007.7 hPa | 0 mm | - | 107 W/m² | - |
| 1777591528 | 27.78° C | 71% | 1007.5 hPa | 0 mm | - | 114 W/m² | - |
| 1777591225 | 27.78° C | 70% | 1007.3 hPa | 0 mm | - | 165 W/m² | - |
| 1777590920 | 28.33° C | 70% | 1007.2 hPa | 0 mm | - | 168 W/m² | - |
| 1777590616 | 27.78° C | 71% | 1007.1 hPa | 0 mm | - | 213 W/m² | - |
| 1777590312 | 28.33° C | 70% | 1007.1 hPa | 0 mm | - | 217 W/m² | - |
| 1777590010 | 27.78° C | 71% | 1007.2 hPa | 0 mm | - | 239 W/m² | - |
| 1777589705 | 27.78° C | 71% | 1007.3 hPa | 0 mm | - | 199 W/m² | - |
| 1777589404 | 28.33° C | 70% | 1007.2 hPa | 0 mm | - | 246 W/m² | - |
| 1777589100 | 28.33° C | 70% | 1006.9 hPa | 0 mm | - | 249 W/m² | - |
| 1777588796 | 28.33° C | 70% | 1007.1 hPa | 0 mm | - | 267 W/m² | - |
| 1777588492 | 28.33° C | 71% | 1007.1 hPa | 0 mm | - | 299 W/m² | - |
| 1777588187 | 28.33° C | 70% | 1007.1 hPa | 0 mm | - | 285 W/m² | - |
| 1777587883 | 28.33° C | 71% | 1007 hPa | 0 mm | - | 280 W/m² | - |
* Rain latest hour (hover to see other rain measurements)
** Current wind speed in m/s (hover to see current wind gust speed)